| time (UTC) | temp C | wind direction | speed KPH | gust KPH | rain 1hr cm | rain 24hr cm | rain mn cm | humidity % | barometer mb |
| 20260503210955 | 16 | 184 | 3.2 | 9.7 | 0.00 | 0.00 | 0.00 | 67 | 1011.4 |
| 20260503205955 | 16 | 193 | 3.2 | 8.0 | 0.00 | 0.00 | 0.00 | 70 | 1011.4 |
| 20260503204956 | 15 | 184 | 3.2 | 11.3 | 0.00 | 0.00 | 0.00 | 70 | 1011.4 |
| 20260503203955 | 15 | 156 | 4.8 | 11.3 | 0.00 | 0.00 | 0.00 | 71 | 1011.5 |
| 20260503202955 | 15 | 149 | 4.8 | 16.1 | 0.00 | 0.00 | 0.00 | 71 | 1011.6 |
| 20260503201955 | 15 | 182 | 3.2 | 11.3 | 0.00 | 0.00 | 0.00 | 66 | 1011.6 |
| 20260503200955 | 16 | 184 | 3.2 | 6.4 | 0.00 | 0.00 | 0.00 | 67 | 1011.7 |
| 20260503200015 | 16 | 188 | 3.2 | 8.0 | 0.00 | 0.00 | 0.00 | 69 | 1011.8 |
| 20260503194955 | 15 | 174 | 3.2 | 8.0 | 0.00 | 0.00 | 0.00 | 70 | 1011.7 |
| 20260503193956 | 15 | 186 | 3.2 | 8.0 | 0.00 | 0.00 | 0.00 | 70 | 1011.9 |
| 20260503192955 | 15 | 199 | 3.2 | 6.4 | 0.00 | 0.00 | 0.00 | 71 | 1011.8 |
| 20260503192016 | 15 | 187 | 3.2 | 8.0 | 0.00 | 0.00 | 0.00 | 73 | 1011.8 |
| 20260503190955 | 15 | 187 | 3.2 | 9.7 | 0.00 | 0.00 | 0.00 | 70 | 1011.8 |
| 20260503185955 | 15 | 166 | 3.2 | 9.7 | 0.00 | 0.00 | 0.00 | 73 | 1011.8 |
| 20260503184955 | 14 | 148 | 1.6 | 11.3 | 0.00 | 0.00 | 0.00 | 71 | 1011.7 |
| 20260503183954 | 15 | 184 | 3.2 | 6.4 | 0.00 | 0.00 | 0.00 | 71 | 1011.7 |
| 20260503182955 | 14 | 172 | 3.2 | 6.4 | 0.00 | 0.00 | 0.00 | 72 | 1011.7 |
| 20260503182015 | 14 | 174 | 3.2 | 9.7 | 0.00 | 0.00 | 0.00 | 74 | 1011.7 |
| 20260503180955 | 14 | 181 | 3.2 | 11.3 | 0.00 | 0.00 | 0.00 | 74 | 1011.7 |
| 20260503180035 | 14 | 88 | 1.6 | 6.4 | 0.00 | 0.00 | 0.00 | 73 | 1011.7 |
| 20260503175015 | 14 | 18 | 3.2 | 6.4 | 0.00 | 0.00 | 0.00 | 73 | 1011.8 |
| 20260503173955 | 14 | 24 | 1.6 | 4.8 | 0.00 | 0.00 | 0.00 | 74 | 1011.7 |
| 20260503172955 | 13 | 17 | 1.6 | 4.8 | 0.00 | 0.00 | 0.00 | 78 | 1011.7 |
| 20260503171954 | 13 | 295 | 1.6 | 4.8 | 0.00 | 0.00 | 0.00 | 78 | 1011.7 |
| 20260503170955 | 13 | 54 | 1.6 | 4.8 | 0.00 | 0.00 | 0.00 | 82 | 1011.7 |
| 20260503150956 | 10 | 142 | 1.6 | 4.8 | 0.00 | 0.00 | 0.00 | 93 | 1011.2 |
| 20260503130955 | 10 | 0.0 | 0.0 | 0.00 | 0.00 | 0.00 | 92 | 1009.8 | |
| 20260503081015 | 11 | 303 | 1.6 | 4.8 | 0.00 | 0.00 | 0.00 | 87 | 1010.4 |
| 20260503071955 | 11 | 278 | 0.0 | 4.8 | 0.00 | 0.00 | 0.00 | 86 | 1010.3 |
| 20260503070955 | 11 | 312 | 0.0 | 4.8 | 0.00 | 0.00 | 0.00 | 86 | 1010.3 |
| 20260503054955 | 11 | 255 | 1.6 | 12.9 | 0.00 | 0.00 | 0.00 | 85 | 1010.5 |
| 20260503054015 | 11 | 288 | 1.6 | 9.7 | 0.00 | 0.00 | 0.00 | 85 | 1010.6 |
| 20260503052955 | 11 | 268 | 1.6 | 4.8 | 0.00 | 0.00 | 0.00 | 85 | 1010.6 |
| 20260503051955 | 11 | 314 | 1.6 | 3.2 | 0.00 | 0.00 | 0.00 | 84 | 1010.7 |
| 20260503050955 | 11 | 295 | 1.6 | 9.7 | 0.00 | 0.00 | 0.00 | 84 | 1010.7 |
| 20260503045955 | 11 | 294 | 1.6 | 6.4 | 0.00 | 0.00 | 0.00 | 84 | 1010.8 |
| 20260503044955 | 11 | 318 | 1.6 | 6.4 | 0.00 | 0.00 | 0.00 | 84 | 1010.6 |
| 20260503043955 | 11 | 314 | 1.6 | 8.0 | 0.00 | 0.00 | 0.00 | 84 | 1010.5 |
| 20260503042955 | 11 | 311 | 1.6 | 12.9 | 0.00 | 0.00 | 0.00 | 84 | 1010.4 |
| 20260503041955 | 11 | 291 | 3.2 | 8.0 | 0.00 | 0.00 | 0.00 | 83 | 1010.4 |
| 20260503040955 | 11 | 274 | 1.6 | 4.8 | 0.00 | 0.00 | 0.00 | 84 | 1010.2 |
| 20260503035955 | 11 | 334 | 1.6 | 4.8 | 0.00 | 0.00 | 0.00 | 83 | 1010.1 |
| 20260503034955 | 12 | 294 | 1.6 | 4.8 | 0.00 | 0.00 | 0.00 | 83 | 1009.9 |
| 20260503033955 | 12 | 306 | 1.6 | 14.5 | 0.00 | 0.00 | 0.00 | 83 | 1009.8 |
| 20260503032955 | 12 | 264 | 1.6 | 6.4 | 0.00 | 0.00 | 0.00 | 83 | 1009.7 |
| 20260503032035 | 12 | 250 | 1.6 | 4.8 | 0.00 | 0.00 | 0.00 | 83 | 1009.6 |
| 20260503030955 | 12 | 281 | 1.6 | 6.4 | 0.00 | 0.00 | 0.00 | 83 | 1009.5 |
| 20260503030015 | 12 | 316 | 3.2 | 8.0 | 0.00 | 0.00 | 0.00 | 82 | 1009.5 |
| 20260503024956 | 12 | 301 | 1.6 | 6.4 | 0.00 | 0.00 | 0.00 | 82 | 1009.5 |
| 20260503023955 | 13 | 264 | 1.6 | 4.8 | 0.00 | 0.00 | 0.00 | 82 | 1009.3 |
| 20260503022956 | 13 | 300 | 1.6 | 9.7 | 0.00 | 0.00 | 0.00 | 81 | 1009.2 |
| 20260503021955 | 13 | 302 | 1.6 | 8.0 | 0.00 | 0.00 | 0.00 | 81 | 1009.2 |
| 20260503020955 | 13 | 317 | 1.6 | 16.1 | 0.00 | 0.00 | 0.00 | 80 | 1009.1 |
| 20260503015955 | 13 | 306 | 1.6 | 6.4 | 0.00 | 0.00 | 0.00 | 78 | 1009.2 |
| 20260503014955 | 14 | 357 | 1.6 | 4.8 | 0.00 | 0.00 | 0.00 | 78 | 1009.2 |
| 20260503014015 | 15 | 310 | 1.6 | 8.0 | 0.00 | 0.00 | 0.00 | 78 | 1009.3 |
| 20260503012955 | 15 | 153 | 1.6 | 3.2 | 0.00 | 0.00 | 0.00 | 77 | 1009.2 |
| 20260503011955 | 15 | 219 | 1.6 | 8.0 | 0.00 | 0.00 | 0.00 | 76 | 1009.2 |
| 20260503010955 | 16 | 301 | 1.6 | 6.4 | 0.00 | 0.00 | 0.00 | 74 | 1009.2 |
| 20260503010015 | 16 | 210 | 1.6 | 6.4 | 0.00 | 0.00 | 0.00 | 75 | 1009.2 |
| 20260503004955 | 16 | 149 | 0.0 | 9.7 | 0.00 | 0.00 | 0.00 | 74 | 1009.3 |
| 20260503003955 | 17 | 167 | 1.6 | 8.0 | 0.00 | 0.00 | 0.00 | 73 | 1009.2 |
| 20260503002955 | 17 | 99 | 1.6 | 11.3 | 0.00 | 0.00 | 0.00 | 71 | 1009.3 |
| 20260503001956 | 17 | 340 | 1.6 | 6.4 | 0.00 | 0.00 | 0.00 | 69 | 1009.3 |
| 20260503000955 | 18 | 240 | 3.2 | 6.4 | 0.00 | 0.00 | 0.00 | 67 | 1009.3 |
| 20260502235955 | 19 | 139 | 1.6 | 4.8 | 0.00 | 0.00 | 0.00 | 66 | 1009.3 |
| 20260502234956 | 19 | 21 | 3.2 | 6.4 | 0.00 | 0.00 | 0.00 | 67 | 1009.3 |
| 20260502234016 | 18 | 200 | 1.6 | 6.4 | 0.00 | 0.00 | 0.00 | 67 | 1009.4 |
| 20260502233015 | 18 | 126 | 3.2 | 11.3 | 0.00 | 0.00 | 0.00 | 68 | 1009.4 |
| 20260502231955 | 18 | 152 | 3.2 | 11.3 | 0.00 | 0.00 | 0.00 | 68 | 1009.5 |
| 20260502230956 | 18 | 140 | 4.8 | 11.3 | 0.00 | 0.00 | 0.00 | 68 | 1009.7 |
| 20260502225955 | 19 | 152 | 4.8 | 11.3 | 0.00 | 0.00 | 0.00 | 68 | 1009.8 |
| 20260502224955 | 18 | 154 | 6.4 | 16.1 | 0.00 | 0.00 | 0.00 | 68 | 1010.0 |
| 20260502224016 | 18 | 147 | 6.4 | 16.1 | 0.00 | 0.00 | 0.00 | 68 | 1010.2 |
| 20260502222955 | 18 | 153 | 8.0 | 17.7 | 0.00 | 0.00 | 0.00 | 67 | 1010.3 |
| 20260502222035 | 18 | 159 | 6.4 | 17.7 | 0.00 | 0.00 | 0.00 | 66 | 1010.5 |
| 20260502221016 | 18 | 161 | 4.8 | 14.5 | 0.00 | 0.00 | 0.00 | 67 | 1010.8 |
| 20260502215955 | 19 | 139 | 4.8 | 14.5 | 0.00 | 0.00 | 0.00 | 66 | 1010.9 |
| 20260502214955 | 19 | 170 | 4.8 | 14.5 | 0.00 | 0.00 | 0.00 | 67 | 1011.1 |
| 20260502213955 | 19 | 142 | 6.4 | 14.5 | 0.00 | 0.00 | 0.00 | 67 | 1011.3 |
| 20260502212955 | 18 | 166 | 3.2 | 6.4 | 0.00 | 0.00 | 0.00 | 68 | 1011.4 |
| 20260502211955 | 18 | 155 | 3.2 | 14.5 | 0.00 | 0.00 | 0.00 | 70 | 1011.4 |